Regional Weather Roundup
Issued by NWS Newport/Morehead, NC

Current Version | Previous Version | Text Only | Print | Product List | Glossary Off
Versions: 1 2 3 4 5 6 7 8 9 10 11 12 13 14 15 16 17 18 19 20 21 22 23 24 25 26 27 28 29 30 31 32 33 34 35 36 37 38 39 40 41 42 43 44 45 46 47 48 49 50

000
ASUS42 KMHX 251124
RWRMHX
WEATHER ROUNDUP FOR EASTERN NORTH CAROLINA
NATIONAL WEATHER SERVICE NEWPORT/MOREHEAD CITY NC
700 AM EDT SAT APR 25 2015

NOTE: "FAIR" INDICATES FEW OR NO CLOUDS BELOW 12,000 FEET
WITH NO SIGNIFICANT WEATHER AND/OR OBSTRUCTIONS TO VISIBILITY

NCZ015>017-031-032-045>047-102-103-251200-
NORTH COAST

CITY           SKY/WX    TMP DP  RH WIND       PRES   REMARKS
EDENTON        CLOUDY    47  44  90 NE3       29.94R
ELIZABETH CITY PTCLDY    51  43  74 E5        29.94S
KITTY HAWK     MOSUNNY   51  43  73 E3        29.93R
MANTEO         PTCLDY    53  43  69 E5        29.95R

$$

NCZ045>047-081-094-103-104-251200-
CENTRAL COAST

CITY           SKY/WX    TMP DP  RH WIND       PRES   REMARKS
FRISCO         CLEAR     56  47  71 W8        29.93R
SWANQUARTER      N/A     54 N/A N/A N2        29.91S

$$

NCZ095-097-098-100-101-251200-
SOUTHERN COAST

CITY           SKY/WX    TMP DP  RH WIND       PRES   REMARKS
BEAUFORT       CLEAR     56  54  93 MISG      29.94S
CEDAR ISLAND     N/A     59 N/A N/A SW7       29.97S
JACKSONVILLE   PTCLDY    54  47  77 CALM      29.93S
PINEY ISLAND   PTSUNNY  N/A N/A N/A SW7       29.93S
WILMINGTON     CLOUDY    53  50  89 CALM      29.94R


$$

NCZ011>013-027>030-043-044-078>080-089-090>093-098-251200-
COASTAL PLAIN

CITY           SKY/WX    TMP DP  RH WIND       PRES   REMARKS
AHOSKIE        MOCLDY    44  41  88 CALM      29.94R
CLINTON        CLOUDY    53  48  82 CALM      29.94R
ELIZABETHTOWN  CLOUDY    56  47  71 SW7       29.93R
GOLDSBORO      CLOUDY    52  47  85 CALM      29.91R
GREENVILLE     MOCLDY    48  43  81 CALM      29.97R
HAVELOCK       CLEAR     46  42  86 S3        29.94F
KENANSVILLE    MOCLDY    49  47  92 CALM      29.94S
KINSTON        PTCLDY    52  46  82 SW6       29.94R
NEW BERN       CLEAR     50  44  80 SW6       29.95S
RICHLANDS      MOCLDY    52  45  76 CALM      29.95R
ROCKY MOUNT    CLOUDY    48  43  82 CALM      29.94R
WASHINGTON       N/A     48  44  84 CALM      29.96R
WHITEVILLE     DRIZZLE   56  49  77 CALM      29.93S

$$

AMZ130-135-150-152-154-156-158-170-250-252-270-ANZ085-086-088-633-658-670-251200-
MARINE OBSERVATIONS

STATION/POSITION TIME  TEMP    WIND        PRES    WAVE   SWELL
                       AIR SEA DIR/SP/G            HT/PER HT/PER
                 (UTC) (F)     (DEG/KT/KT) (MB)    (FT/S) (FT/S)
CHESAPEAKE LIGHT 1100   54      20/ 10/ 11 1014.5
64 E VA BEACH    1050   57 60  290/  4/  6 1013.6    2/13   2/13
DUCK             1100   54 55  110/  5/  6 1012.7
2 E DUCK         1011      54                N/A     2/13   2/13
10 NE DUCK       NOT AVBL
OREGON INLET     1100   53 56   50/  6/  7 1013.6
HATTERAS CG      1000   59 66  230/  7/ 10 1012.8
DIAMOND BUOY     1050   65 70  260/ 16/ 17 1013.4    4/ 8   3/ 8
CAPE LOOKOUT     1100   62     240/  5/  6 1013.6
BEAUFORT LAB     1000   59 64  260/  3/  7 1012.9
27 SE WRIGHTSVLE 1100   65 70  240/ 10/ 14   N/A
5 SE WRIGHTSVLE  NOT AVBL
225 S CAPE HAT   1050   63 70  200/  4/  6 1016.6    7/ 8   7/ 8
41 SE CHARLESTON 1050   71 71  170/ 10/ 12 1014.1    3/ 9   2/ 9

$$



USA.gov is the U.S. government's official web portal to all federal, state and local government web resources and services.